Location: Firdgum
(53.2488°N, 5.5615°E)
Time: 00:51:02
(UTC+00:00)

STARLINK 1065 - Pass Details

Date: 08 December 2019
Orbit: 548 x 551 km, 53.0° (Epoch: 17 January)

Event Time Altitude Azimuth Distance (km) Brightness Sun altitude
Exits shadow 05:24:05 35° 238° (WSW) 911 4.3 -18.8°
Maximum altitude 05:24:54 39° 210° (SSW) 845 4.4 -18.7°
Drops below altitude 10° 05:28:49 10° 141° (SE) 1,843 7.1 -18.1°
Sets 05:31:09 0° 133° (SE) 2,737 8.3 -17.7°
